Starlink 4380

operational
NORAD ID: 53650 Int'l Des: 2022-105 Owner: SPXS Country: US Constellation: starlink
LEOCIRCULARRETROGRADESSO

Starlink 4380について

説明を読み込み中...

リアルタイム位置

3D地球を読み込み中...

次回通過

高度履歴

Altitude vs Time

uPlot chart will show altitude changes over time

軌道要素

1 53650U 22105C 25306.40189712 .00001088 00000-0 89213-4 0 9991
2 53650 97.6008 185.5953 0004474 57.7240 302.4417 15.01261450174133
Epoch: Nov 2, 2025 • Age: 41 hours

現在のステータス

高度 592.9 km
速度 7.56 km/s
衛星直下点 -73.93°S, 105.34°W
打ち上げ日 Aug 31, 2022
運用期間 3.1 years
タイプ internet

技術仕様

分類 Payload
質量 300.00 kg
乾燥質量 290.00 kg
総質量 300.00 kg
長さ 0.20 m
直径 2.80 m
スパン 9.00 m
形状 Box + pan
製造者 SPXS
バスタイプ Starlink
フェーズステータス In Orbit
所有者/国 SPXS/US

大規模コンステレーション

Loading constellations...